This is the latest recevied weather packets stored in our database for station/object SP6RGZ-1. If no packets are shown the sender has not sent any weather packets the latest 10 day(s).
| Time | Temp. | Humidity | Pressure | Rain* | Wind** | Luminosity | Snow |
|---|---|---|---|---|---|---|---|
| 1777932002 | 18.33° C | 64% | 992.3 hPa | - | - | - | - |
| 1777931102 | 18.89° C | 62% | 992.3 hPa | - | - | - | - |
| 1777930202 | 18.89° C | 62% | 992.2 hPa | - | - | - | - |
| 1777929302 | 19.44° C | 60% | 992.2 hPa | - | - | - | - |
| 1777928402 | 18.89° C | 61% | 992.2 hPa | - | - | - | - |
| 1777927502 | 18.89° C | 64% | 992.2 hPa | - | - | - | - |
| 1777926602 | 20° C | 60% | 992.2 hPa | - | - | - | - |
| 1777925702 | 20° C | 59% | 992.2 hPa | - | - | - | - |
| 1777924802 | 20.56° C | 57% | 992.1 hPa | - | - | - | - |
| 1777923902 | 20.56° C | 55% | 992.1 hPa | - | - | - | - |
| 1777923002 | 21.11° C | 55% | 992.2 hPa | - | - | - | - |
| 1777922102 | 21.11° C | 54% | 992.1 hPa | - | - | - | - |
| 1777921202 | 21.11° C | 52% | 992 hPa | - | - | - | - |
| 1777920302 | 21.67° C | 50% | 991.8 hPa | - | - | - | - |
| 1777919402 | 22.78° C | 47% | 991.8 hPa | - | - | - | - |
| 1777918502 | 23.33° C | 45% | 991.7 hPa | - | - | - | - |
| 1777917602 | 23.89° C | 42% | 991.6 hPa | - | - | - | - |
| 1777916703 | 24.44° C | 41% | 991.5 hPa | - | - | - | - |
| 1777915802 | 25° C | 40% | 991.6 hPa | - | - | - | - |
| 1777914902 | 25° C | 39% | 991.6 hPa | - | - | - | - |
| 1777914003 | 25.56° C | 38% | 991.7 hPa | - | - | - | - |
| 1777913102 | 26.11° C | 37% | 991.6 hPa | - | - | - | - |
| 1777912202 | 26.67° C | 36% | 991.6 hPa | - | - | - | - |
| 1777911302 | 27.78° C | 36% | 991.6 hPa | - | - | - | - |
| 1777910402 | 27.78° C | 35% | 991.6 hPa | - | - | - | - |
* Rain since midnight (hover to see other rain measurements)
** Current wind speed in m/s (hover to see current wind gust speed)